www.pogodaiklimat.ru

Погода и климат >> Архив погоды >> Норвегия >> Juvvasshoe


ПОГОДА в Juvvasshoe

  • Прогноз погоды в Juvvasshoe
  • Монитор погоды в Juvvasshoe
  • Климат города

АРХИВ ПОГОДЫ в Juvvasshoe

Время (UTC), дата Ветер
(напр.,м/с)
 
Видим.   Явления Облачность Т
(С)
Тd
(С)
f
(%)
Тe
(С)
Тes
(С)
Комфортность P
(гПа)
Po
(гПа)
Тmin
(С)
Tmax
(С)
R
(мм)
R24
(мм)
S
(см)
02 13.11 З 7-7
{7}
н/о н/о -10.3 -10.9 95 -20 -20 1011.2 1011.0
01 13.11 СЗ 7-9
{9}
н/о н/о -10.0 -10.6 95 -19 -19 1010.8 1011.0
03 13.11 СЗ 5-7
{7}
н/о н/о -10.3 -10.9 95 -18 -18 1011.3 1011.0
04 13.11 СЗ 5-6
{7}
н/о н/о -10.3 -10.9 95 -18 -18 1011.8 1012.0
05 13.11 СЗ 5-7
{7}
н/о н/о -10.5 -11.2 95 -18 -18 1012.4 1012.0
06 13.11 З 3-5
{9}
н/о н/о -10.6 -11.3 95 -17 -17 1013.2 1013.0 -10.7 -7.6
08 13.11 СЗ 3-4
{5}
н/о н/о -11.0 -11.7 95 -17 -17 1014.8 1015.0
07 13.11 СЗ 3-5
{7}
н/о н/о -10.9 -11.6 95 -17 -17 1013.8 1014.0
09 13.11 З 3-3
{5}
н/о н/о -10.9 -11.6 95 -17 -17 1015.5 1016.0
10 13.11 З 4-4
{5}
н/о н/о -11.2 -11.9 95 -18 -18 1015.3 1015.0
11 13.11 З 3-4
{5}
н/о н/о -11.5 -12.2 95 -17 -17 1015.0 1015.0
12 13.11 З 5-5
{7}
н/о н/о -12.1 -12.9 94 -20 -20 1015.7 1016.0
14 13.11 З 5-6
{6}
н/о н/о -11.9 -12.7 94 -20 -20 1015.2 1015.0
13 13.11 З 6-7
{7}
н/о н/о -12.1 -12.9 94 -21 -21 1015.3 1015.0
15 13.11 З 5-5
{5}
н/о н/о -12.5 -13.3 94 -21 -21 1015.8 1016.0
16 13.11 З 9-5
{9}
н/о н/о -13.2 -14.1 93 -24 -24 1015.4 1015.0
17 13.11 З 4-9
{9}
н/о н/о -13.2 -14.2 92 -21 -21 1016.1 1016.0
18 13.11 штиль 0
{9}
н/о н/о -13.1 -14.1 92 -13 -13 1015.6 1016.0 -10.6
20 13.11 Ю 1-4
{4}
н/о н/о -13.9 -15.0 91 -16 -16 1015.7 1016.0
19 13.11 З 4
{5}
н/о н/о -13.4 -14.4 92 -21 -21 1015.4 1015.0
21 13.11 штиль 0
{3}
н/о н/о -13.5 -14.6 91 -14 -14 1014.7 1015.0
22 13.11 штиль 0-3
{3}
н/о н/о -13.0 -14.0 92 -13 -13 1013.5 1014.0
23 13.11 штиль 0
{4}
н/о н/о -13.0 -14.0 92 -13 -13 1012.5 1013.0
00 14.11 штиль 0-3
{5}
н/о н/о -12.9 -13.9 92 -13 -13 1011.7 1012.0
02 14.11 ЮЗ 6-3
{13}
н/о н/о -10.5 -11.2 95 -19 -19 1008.1 1008.0
01 14.11 З 1
{5}
н/о н/о -12.7 -13.6 93 -15 -15 1011.3 1011.0
03 14.11 З 7-12
{15}
н/о н/о -9.5 -10.1 95 -19 -19 1005.9 1006.0
04 14.11 ЮЗ 6-14
{15}
н/о н/о -8.1 -8.6 96 -17 -17 1003.9 1004.0
05 14.11 ЮЗ 6-15
{15}
н/о н/о -7.3 -7.8 96 -16 -16 1002.4 1002.0
06 14.11 ЮЗ 12-14
{19}
н/о н/о -6.9 -7.4 96 -18 -18 1001.2 1001.0 -14.1 -6.9 52
08 14.11 ЮЗ 15-21
{22}
н/о н/о -7.0 -7.5 96 -19 -19 1001.0 1001.0
07 14.11 ЮЗ 15-17
{27}
н/о н/о -7.1 -7.6 96 -19 -19 1001.3 1001.0
09 14.11 З 16-23
{23}
н/о н/о -7.5 -7.9 97 -20 -20 1002.1 1002.0
10 14.11 З 16-17
{19}
н/о н/о -7.7 -8.2 96 -20 -20 1003.1 1003.0
11 14.11 З 19-19
{22}
н/о н/о -7.5 -8.1 95 -21 -21 1002.7 1003.0
12 14.11 З 17-21
{27}
н/о н/о -8.0 -8.5 96 -21 -21 1004.2 1004.0
14 14.11 З 20-18
{23}
н/о н/о -7.9 -8.3 97 -21 -21 1004.9 1005.0
13 14.11 З 17-20
{21}
н/о н/о -8.5 -9.1 95 -21 -21 1005.7 1006.0
15 14.11 З 21-22
{24}
н/о н/о -7.9 -8.3 97 -22 -22 1005.4 1005.0
16 14.11 З 20-24
{24}
н/о н/о -8.0 -8.5 96 -21 -21 1006.4 1006.0
17 14.11 З 19-23
{27}
н/о н/о -7.7 -8.1 97 -21 -21 1006.6 1007.0
18 14.11 З 19-24
{27}
н/о н/о -8.0 -8.6 95 -21 -21 1007.4 1007.0 -8.6 -6.7
20 14.11 З 16-22
{24}
н/о н/о -7.3 -7.7 97 -20 -20 1007.4 1007.0
19 14.11 З 19-22
{24}
н/о н/о -7.7 -8.1 97 -21 -21 1007.5 1008.0
21 14.11 З 17-21
{25}
н/о н/о -6.9 -7.6 95 -19 -19 1006.5 1007.0
22 14.11 З 15-24
{25}
н/о н/о -6.4 -7.8 90 -18 -18 1005.3 1005.0
23 14.11 ЮЗ 15-21
{28}
н/о н/о -6.4 -7.4 93 -18 -18 1004.8 1005.0
00 15.11 ЮЗ 18-26
{39}
н/о н/о -6.0 -7.5 89 -18 -18 1004.2 1004.0
02 15.11 ЮЗ 14-27
{31}
н/о н/о -5.3 -7.1 87 -16 -16 1002.7 1003.0
01 15.11 ЮЗ 20-32
{35}
н/о н/о -5.1 -6.8 88 -18 -18 1001.9 1002.0
03 15.11 ЮЗ 9-24
{24}
н/о н/о -5.9 -7.0 92 -15 -15 1003.5 1004.0
04 15.11 З 19-18
{28}
н/о н/о -7.4 -7.9 96 -20 -20 1004.8 1005.0
05 15.11 З 20-23
{25}
н/о н/о -8.4 -9.1 95 -22 -22 1006.1 1006.0
06 15.11 З 17-24
{35}
н/о н/о -8.9 -9.6 95 -22 -22 1007.2 1007.0 -8.9 -5.1 47
08 15.11 З 15-21
{21}
н/о н/о -9.3 -10.2 93 -22 -22 1009.5 1010.0
07 15.11 З 17-21
{22}
н/о н/о -9.2 -9.7 96 -22 -22 1008.8 1009.0
09 15.11 З 18-20
{23}
н/о н/о -9.2 -9.9 95 -22 -22 1009.6 1010.0
10 15.11 З 19-23
{25}
н/о н/о -9.2 -10.0 94 -23 -23 1010.0 1010.0
11 15.11 З 18-24
{25}
н/о н/о -9.1 -9.9 94 -22 -22 1010.7 1011.0
12 15.11 З 17-28
{28}
н/о н/о -8.8 -9.6 94 -22 -22 1011.1 1011.0
14 15.11 З 19-24
{24}
н/о н/о -8.8 -9.3 96 -22 -22 1012.2 1012.0
13 15.11 З 19-24
{24}
н/о н/о -9.0 -9.6 95 -22 -22 1011.8 1012.0
15 15.11 З 21-24
{27}
н/о н/о -9.1 -9.8 95 -23 -23 1012.9 905.8
16 15.11 З 18-25
{25}
н/о н/о -9.4 -10.2 94 -23 -23 1014.7 1015.0
17 15.11 З 16-22
{22}
н/о н/о -9.2 -10.1 93 -22 -22 1015.6 1016.0
18 15.11 З 16-20
{27}
н/о н/о -9.1 -9.9 94 -22 -22 1016.1 800.3 -9.5 -8.6
20 15.11 З 16 н/о н/о -9.5 -10.4 93 -22 -22 1017.0 800.7
19 15.11 З 13-20
{21}
н/о н/о -8.9 -9.3 97 -21 -21 1016.6 800.8
21 15.11 З 18-19
{22}
н/о н/о -8.9 -9.9 92 -22 -22 1016.1 800.4
22 15.11 З 18-23
{24}
н/о н/о -9.0 -9.6 95 -22 -22 1015.7 800.0
23 15.11 ЮЗ 17-23
{28}
н/о н/о -8.8 -10.6 87 -22 -22 1015.8 800.4
00 16.11 З 3-23
{28}
н/о н/о -9.4 -11.1 87 -15 -15 1018.2 801.7
02 16.11 ЮЗ 2-2
{5}
н/о н/о -10.3 -11.1 94 -15 -15 1018.3 801.2
01 16.11 ЮЗ 1-9
{11}
н/о н/о -9.4 -11.2 87 -12 -12 1017.8 801.4
03 16.11 С 2-3
{5}
н/о н/о -9.4 -10.2 94 -14 -14 1017.0 800.8
04 16.11 ЮВ 1-4
{6}
н/о н/о -9.0 -10.2 91 -11 -11 1015.9 800.2
05 16.11 ЮЗ 5-4
{12}
н/о н/о -7.2 -12.4 66 -14 -14 1013.3 1013.0
06 16.11 Ю 7-14
{14}
н/о н/о -8.6 -9.0 97 -18 -18 1013.2 904.8 -10.6 -7.0 45
08 16.11 ЮЗ 6-12
{16}
н/о н/о -5.5 -7.1 88 -13 -13 1008.3 1008.0
07 16.11 ЮЗ 8-7
{17}
н/о н/о -5.8 -7.7 86 -15 -15 1009.3 1009.0
09 16.11 ЮЗ 8-16
{18}
н/о н/о -5.2 -6.9 88 -14 -14 1007.2 1007.0
10 16.11 ЮЗ 18-17
{28}
н/о н/о -4.5 -6.7 85 -16 -16 1004.3 1004.0
11 16.11 ЮЗ 18-26
{29}
н/о н/о -3.4 -5.4 86 -15 -15 1002.2 1002.0
12 16.11 ЮЗ 20-24
{29}
н/о н/о -3.2 -4.5 91 -15 -15 1000.7 1001.0
14 16.11 Ю 14-23
{23}
н/о н/о -4.6 -5.5 93 -16 -16 998.8 999.0
13 16.11 Ю 19-27
{27}
н/о н/о -3.9 -5.4 89 -16 -16 998.8 999.0
15 16.11 Ю 14-22
{23}
н/о н/о -4.4 -5.2 94 -15 -15 997.2 997.0
16 16.11 Ю 13-19
{21}
н/о н/о -4.4 -6.7 84 -15 -15 997.3 997.0
17 16.11 З 16-18
{27}
н/о н/о -6.6 -7.5 93 -19 -19 999.3 999.0
18 16.11 ЮЗ 13-27
{27}
н/о н/о -7.3 -9.2 86 -19 -19 999.4 999.0 -8.7 -2.8
20 16.11 ЮЗ 18-28
{31}
н/о н/о -6.9 -9.4 82 -19 -19 997.6 998.0
19 16.11 ЮЗ 16-23
{28}
н/о н/о -7.9 -10.3 83 -20 -20 999.3 999.0
21 16.11 З 20-28
{32}
н/о н/о -7.5 -8.5 93 -21 -21 998.4 998.0
22 16.11 З 18-26
{28}
н/о н/о -8.2 -8.9 95 -21 -21 1000.0 1000.0
23 16.11 З 16-29
{29}
н/о н/о -8.9 -10.0 92 -22 -22 1001.6 1002.0
00 17.11 З 19-23
{33}
н/о н/о -9.6 -11.3 87 -23 -23 1002.6 1003.0
02 17.11 ЮЗ 13-17
{22}
н/о н/о -9.4 -10.1 95 -21 -21 1002.8 1003.0
01 17.11 ЮЗ 12-25
{25}
н/о н/о -9.6 -10.4 94 -21 -21 1002.9 1003.0
03 17.11 З 22-27
{27}
н/о н/о -10.7 -11.6 93 -25 -25 1002.7 1003.0
04 17.11 ЮЗ 15-24
{25}
н/о н/о -9.7 -10.7 92 -22 -22 1002.0 1002.0
05 17.11 ЮЗ 14-24
{26}
н/о н/о -8.5 -9.1 95 -20 -20 999.3 999.0
06 17.11 З 18-27
{30}
н/о н/о -8.2 -9.1 93 -21 -21 998.3 998.0 -10.9 -6.9 44
08 17.11 ЮЗ 20-33
{33}
н/о н/о -8.6 -10.1 89 -22 -22 998.3 998.0
07 17.11 ЮЗ 19-31
{36}
н/о н/о -8.5 -9.5 92 -22 -22 998.3 998.0
09 17.11 ЮЗ 15-29
{30}
н/о н/о -8.5 -9.4 93 -21 -21 998.6 999.0
10 17.11 ЮЗ 16-24
{33}
н/о н/о -8.9 -9.6 95 -22 -22 999.3 999.0
11 17.11 ЮЗ 13-25
{25}
н/о н/о -8.8 -9.5 95 -20 -20 999.7 1000.0
12 17.11 ЮЗ 17-23
{36}
н/о н/о -9.3 -10.2 93 -22 -22 1000.2 1000.0
14 17.11 ЮЗ 12-26
{27}
н/о н/о -9.6 -10.6 92 -21 -21 1000.7 1001.0
13 17.11 ЮЗ 14-30
{30}
н/о н/о -9.3 -10.4 92 -21 -21 1000.0 1000.0
15 17.11 З 21-18
{30}
н/о н/о -9.8 -10.6 94 -24 -24 999.4 999.0
16 17.11 ЮЗ 10-25
{26}
н/о н/о -9.2 -10.5 90 -20 -20 999.0 999.0
17 17.11 ЮЗ 14-23
{27}
н/о н/о -8.7 -9.8 92 -21 -21 997.3 997.0
18 17.11 ЮЗ 14-27
{30}
н/о н/о -9.5 -10.6 92 -22 -22 997.4 997.0 -10.0 -8.2
20 17.11 ЮЗ 10-24
{25}
н/о н/о -9.9 -11.2 90 -21 -21 997.6 998.0
19 17.11 ЮЗ 13-22
{29}
н/о н/о -9.3 -11.0 87 -21 -21 997.0 997.0
21 17.11 З 13-18
{24}
н/о н/о -9.7 -10.9 91 -22 -22 997.2 997.0
22 17.11 ЮЗ 11-19
{23}
н/о н/о -10.4 -12.9 82 -22 -22 996.5 997.0
23 17.11 ЮЗ 11-25
{28}
н/о н/о -10.1 -12.7 81 -21 -21 996.2 996.0
00 18.11 ЮЗ 7-22
{29}
н/о н/о -9.9 -12.1 84 -19 -19 996.4 996.0
02 18.11 ЮЗ 10-13
{16}
н/о н/о -10.7 -12.6 86 -22 -22 995.7 996.0
01 18.11 ЮЗ 10-12
{18}
н/о н/о -10.2 -12.8 81 -21 -21 995.7 996.0
03 18.11 ЮЗ 8-13
{16}
н/о н/о -10.7 -12.9 84 -21 -21 995.1 995.0
04 18.11 З 9-13
{16}
н/о н/о -10.5 -12.9 82 -21 -21 994.6 995.0
05 18.11 ЮЗ 13-15
{22}
н/о н/о -10.4 -12.8 83 -22 -22 993.4 993.0
06 18.11 ЮЗ 7-19
{22}
н/о н/о -10.2 -13.2 79 -19 -19 993.4 993.0 -10.8 -9.2 42
08 18.11 ЮЗ 9-12
{20}
н/о н/о -9.2 -11.4 84 -19 -19 990.7 991.0
07 18.11 Ю 4-15
{15}
н/о н/о -10.0 -13.6 75 -17 -17 992.7 993.0
09 18.11 З 2-13
{18}
н/о н/о -10.0 -10.9 93 -15 -15 991.1 991.0
10 18.11 ЮЗ 3-2
{7}
н/о н/о -9.8 -10.6 94 -16 -16 990.8 991.0
11 18.11 ЮЗ 3-8
{8}
н/о н/о -9.3 -10.1 94 -15 -15 990.1 990.0
12 18.11 ЮЗ 5-8
{20}
н/о н/о -8.7 -9.6 93 -16 -16 989.3 989.0
14 18.11 З 5-13
{13}
н/о н/о -7.9 -8.9 93 -16 -16 988.3 988.0
13 18.11 ЮЗ 7-9
{11}
н/о н/о -7.7 -8.9 91 -17 -17 988.2 988.0
15 18.11 Ю 2-8
{8}
н/о н/о -8.5 -9.0 96 -13 -13 989.1 989.0
16 18.11 С 2-2
{2}
н/о н/о -8.9 -9.2 98 -14 -14 989.6 990.0
17 18.11 С 3-2
{3}
н/о н/о -9.4 -9.9 96 -15 -15 990.8 991.0
18 18.11 С 3-5
{13}
н/о н/о -9.7 -10.2 96 -16 -16 992.4 992.0 -10.3 -7.4
20 18.11 -5
{5}
н/о н/о -10.6 -11.2 95 995.9 996.0
19 18.11 С 4-5
{5}
н/о н/о -10.4 -11.0 95 -17 -17 994.1 994.0
21 18.11 СЗ 3-6
{7}
н/о н/о -11.1 -11.8 95 -17 -17 997.7 998.0
22 18.11 СЗ 3-4
{7}
н/о н/о -11.1 -11.8 95 -17 -17 998.7 999.0
23 18.11 СЗ 6-4
{9}
н/о н/о -10.8 -11.5 95 -19 -19 998.6 999.0
00 19.11 С 6-9
{9}
н/о н/о -11.1 -11.7 95 -20 -20 999.7 1000.0
02 19.11 С 5-8
{10}
н/о н/о -11.4 -12.1 95 -19 -19 1001.7 1002.0
01 19.11 С 6-7
{9}
н/о н/о -11.3 -12.0 95 -20 -20 1000.9 1001.0
03 19.11 СЗ 7-5
{9}
н/о н/о -11.5 -12.2 95 -21 -21 1002.4 1002.0
04 19.11 СЗ 5-8
{8}
н/о н/о -11.9 -12.7 94 -20 -20 1003.5 1004.0
05 19.11 СЗ 5-7
{7}
н/о н/о -11.9 -12.7 94 -20 -20 1004.3 1004.0
06 19.11 СЗ 7-6
{10}
н/о н/о -12.1 -12.9 94 -22 -22 1004.8 1005.0 -12.2 -9.5 45
08 19.11 СЗ 3-5
{5}
н/о н/о -11.8 -12.6 94 -18 -18 1006.8 1007.0
07 19.11 СЗ 4-10
{10}
н/о н/о -12.3 -13.2 93 -19 -19 1006.3 1006.0
09 19.11 СЗ 6-5
{7}
н/о н/о -11.8 -12.7 93 -21 -21 1007.3 1007.0
10 19.11 З 7-8
{9}
н/о н/о -11.3 -12.2 93 -21 -21 1007.3 1007.0
11 19.11 З 6-8
{9}
н/о н/о -10.4 -11.5 92 -19 -19 1006.9 1007.0
12 19.11 З 6-8
{10}
н/о н/о -9.4 -10.5 92 -18 -18 1006.2 1006.0
14 19.11 З 8-9
{11}
н/о н/о -9.4 -9.8 97 -19 -19 1006.5 1007.0
13 19.11 З 8-8
{9}
н/о н/о -9.1 -9.7 95 -19 -19 1006.1 1006.0
15 19.11 З 6-9
{11}
н/о н/о -9.8 -10.4 95 -18 -18 1007.1 1007.0
16 19.11 З 7-9
{9}
н/о н/о -9.9 -10.5 95 -19 -19 1007.3 1007.0
17 19.11 З 6-9
{9}
н/о н/о -10.7 -11.4 95 -19 -19 1008.1 1008.0
18 19.11 З 5-7
{11}
н/о н/о -10.1 -10.8 95 -18 -18 1007.8 1008.0 -12.5 -9.1
20 19.11 З 6-6
{8}
н/о н/о -10.0 -10.6 95 -19 -19 1008.4 1008.0
19 19.11 З 4-7
{8}
н/о н/о -10.0 -10.6 95 -17 -17 1008.0 1008.0
21 19.11 З 5-8
{9}
н/о н/о -10.2 -10.8 95 -18 -18 1008.5 1009.0
22 19.11 З 5-7
{9}
н/о н/о -11.2 -12.0 94 -19 -19 1009.6 1010.0
23 19.11 З 6-6
{7}
н/о н/о -12.1 -13.0 93 -21 -21 1010.5 1011.0
00 20.11 З 6-7
{9}
н/о н/о -11.6 -12.4 94 -20 -20 1010.1 1010.0

 

Местоположение метеостанции Juvvasshoe (Норвегия): широта 61.68 долгота 8.37 высота над уровнем моря 1894 м.

В архиве по умолчанию представлена погода в Juvvasshoe за последнюю неделю. Архивные данные за месяц целиком и за предыдущие месяцы, начиная с января 2011 года, Вы можете получить, выбрав интересующий диапазон дат из раскрывающегося списка и нажав кнопку "Ввод!".

Внимание! Время в таблицах - всемирное. Для получения местного времени необходимо прибавить поправку, которая в Juvvasshoe равна 1 ч.

Смотрите также архив погоды в соседних городах и на ближайших метеорологических станциях:

Погода в Sognefjellhytta (Норвегия) (23 км)
Погода в Brata (Норвегия) (36 км)
Погода в Grotli III (Норвегия) (53 км)
Погода в Beitostolen II (Норвегия) (56 км)
Погода в Skabu (Норвегия) (57 км)
Погода в Filefjell-Kyrkjestolane (Норвегия) (57 км)
Погода в Dombas-Nordigard (Норвегия) (59 км)
Погода в Bjorli (Норвегия) (65 км)
Погода в Fokstugu (Норвегия) (68 км)
Погода в Loken i Volbu (Норвегия) (72 км)

Пояснения к столбцам:

Ветер - указаны скорость ветра в м/с - средняя за 10 мин, порывы в срок и между сроками (в фигурных скобках) и направление, откуда дует ветер: С - северный, СВ - северо-восточный, В - восточный, ЮВ - юго-восточный, Ю - южный, ЮЗ - юго-западный, З - западный, СЗ - северо-западный.
Видимость - горизонтальная дальность видимости в метрах или километрах. При видимости от 1 до 10 км при отсутствии осадков обычно наблюдается дымка, при ухудшении видимости до 1 км и менее - туман. В сухую погоду видимость может ухудшаться дымом, пылью или мглою.
Явления - указаны атмосферные явления, наблюдавшиеся в срок или в последний час перед сроком; фигурными скобками обозначены явления, наблюдавшиеся между сроками (за 1-3 часа до срока); квадратными скобками обозначены град или гололедные отложения с указанием их диаметра в мм.
Облачность - указаны через наклонную черту общая и нижняя облачность в баллах и высота нижней границы облаков в метрах; квадратными скобками обозначены формы облаков: Ci - перистые, Cs - перисто-слоистые, Cc - перисто-кучевые, Ac - высококучевые, As - высокослоистые, Sc - слоисто-кучевые, Ns - слоисто-дождевые, Cu - кучевые, Cb - кучево-дождевые. Подробнее классификацию облаков см. в Атласе облаков (PDF).
T - Температура воздуха - температура, измеренная на высоте 2 м над землей.
Td - Температура точки росы - температура, при понижении до которой содержащийся в воздухе водяной пар достигнет насыщения.
f - Относительная влажность воздуха - влажноcть воздуха, измеренная на высоте 2 м над землей.
Te - Эффективная температура - температура, которую ощущает одетый по сезону человек в тени. Характеристика душности погоды. При расчете учитывается влияние влажности воздуха и скорости ветра на теплоощущения человека.
Tes - Эффективная температура на солнце - температура, которую ощущает человек, с поправкой на солнечный нагрев. Характеристика знойности погоды. Зависит от высоты солнца над горизонтом, облачности и скорости ветра. Ночью, в пасмурную погоду, а также при ветре 12 м/с и более поправка равна нулю.
P - Атмосферное давление - приведенное к уровню моря атмосферное давление.
Po - Атмосферное давление - измеренное на уровне метеостанции атмосферное давление.
Tmin - Минимальная температура - минимум температуры воздуха на высоте 2 м над землей.
Tmax - Максимальная температура - максимум температуры воздуха на высоте 2 м над землей.
R - Количество осадков - Количество выпавших осадков за период времени, мм. При наведении курсора мыши на число - период времени, за который выпало указанное количество осадков.
R24 - Количество осадков - Количество выпавших осадков за 24 часа, мм.
S - Снежный покров - Высота снежного покрова, см. При наведении курсора мыши на число - состояние снежного покрова и степень покрытия местности в баллах.